EW4543 Weather Reports


Display with metric or nautical units.
time (UTC)temp
F
wind
direction
speed
MPH
gust
MPH
rain 1hr
in
rain 24hr
in
rain mn
in
humidity
%
barometer
mb
20260504044547 53 233 0.0 1.0 0.00 0.02 0.02 80 1009.9
20260504043040 53 233 0.0 1.0 0.00 0.02 0.02 79 1009.8
20260504041538 54 212 0.0 2.0 0.00 0.02 0.02 79 1009.5
20260504040044 54 196 0.0 1.0 0.00 0.02 0.02 79 1009.3
20260504034553 55 200 0.0 1.0 0.00 0.02 0.02 81 1009.1
20260504033033 55 235 0.0 1.0 0.00 0.02 0.02 84 1008.8
20260504031532 55 236 0.0 0.0 0.00 0.02 0.02 82 1008.8
20260504030041 55 236 0.0 0.0 0.00 0.02 0.02 80 1008.5
20260504023059 56 236 0.0 0.0 0.00 0.02 0.02 80 1008.4
20260504021544 56 203 0.0 0.0 0.00 0.02 0.02 80 1008.1
20260504020047 56 203 0.0 0.0 0.00 0.02 0.02 79 1008.1
20260504014549 56 200 0.0 1.0 0.00 0.02 0.02 79 1008.0
20260504013047 57 289 0.0 1.0 0.00 0.02 0.02 78 1007.9
20260504011544 57 248 0.0 0.0 0.00 0.02 0.02 77 1007.8
20260504010051 58 204 0.0 1.0 0.00 0.02 0.02 76 1007.8
20260504004557 58 216 0.0 1.0 0.00 0.02 0.02 75 1007.9
20260504003041 59 245 0.0 3.0 0.00 0.02 0.02 74 1007.7
20260504001541 58 291 0.0 2.0 0.00 0.02 0.02 76 1007.6
20260504000041 57 315 0.0 1.0 0.00 0.02 0.02 77 1007.6
20260503234542 57 360 1.0 3.0 0.00 0.02 0.02 77 1007.6
20260503233039 56 219 0.0 3.0 0.00 0.02 0.02 78 1007.9
20260503231539 56 127 0.0 1.0 0.00 0.02 0.02 79 1008.0
20260503230040 56 284 0.0 1.0 0.00 0.02 0.02 79 1008.0
20260503224538 56 201 0.0 1.0 0.00 0.02 0.02 79 1007.9
20260503223017 55 244 0.0 1.0 0.00 0.02 0.02 80 1007.9
20260503221527 55 281 0.0 1.0 0.00 0.02 0.02 79 1007.9
20260503220028 56 243 0.0 2.0 0.00 0.02 0.02 79 1008.0
20260503214528 56 238 0.0 1.0 0.00 0.02 0.02 79 1008.0
20260503213026 56 233 0.0 2.0 0.00 0.02 0.02 78 1008.1
20260503211525 56 189 0.0 1.0 0.00 0.02 0.02 77 1008.1
20260503210028 57 210 1.0 3.0 0.00 0.02 0.02 77 1008.1
20260503204537 58 248 0.0 3.0 0.00 0.02 0.02 74 1008.0
20260503203024 58 191 0.0 2.0 0.00 0.02 0.02 75 1007.9
20260503201523 58 249 0.0 3.0 0.01 0.02 0.02 74 1007.9
20260503200023 59 219 1.0 3.0 0.01 0.02 0.02 73 1007.8
20260503194525 61 323 2.0 4.0 0.01 0.02 0.02 70 1007.8
20260503193032 63 233 0.0 3.0 0.01 0.02 0.02 69 1007.6
20260503191517 61 284 1.0 4.0 0.00 0.01 0.01 72 1007.7
20260503190015 59 308 0.0 3.0 0.00 0.01 0.01 76 1007.9
20260503184531 58 236 0.0 2.0 0.00 0.01 0.01 76 1007.8
20260503183013 58 217 0.0 3.0 0.00 0.01 0.01 76 1007.9
20260503181512 58 243 0.0 3.0 0.00 0.01 0.01 76 1007.7
20260503180020 57 316 1.0 3.0 0.01 0.01 0.01 76 1007.7
20260503174511 59 276 0.0 2.0 0.01 0.01 0.01 74 1007.9
20260503173006 57 274 0.0 2.0 0.01 0.01 0.01 79 1007.8
20260503171503 55 316 1.0 3.0 0.01 0.01 0.01 80 1007.6
20260503081514 53 283 0.0 0.0 0.00 0.04 0.00 93 1005.5
20260503071510 54 283 0.0 0.0 0.00 0.04 0.00 92 1006.2